This demonstration page uses our WeatherBlox Daily Observations layout. Learn more.

Left ArrowRight Arrow

Hourly Observations for November 8, 2019

Temp ( °F °C ) Dew Point ( °F °C ) Humidity (%) Winds ( mph kmh ) Pressure ( in mb ) Visibility ( mi km ) Precip ( " mm )
12:53 am 00:53 Clear 45 7.2 34 1.1 66 66 NE 3 6 30.14 1021 10 16 0.00 0.00
1:53 am 01:53 Clear 44 6.7 33 0.6 65 65 Calm 30.15 1021 10 16 0.00 0.00
2:53 am 02:53 Clear 42 5.6 35 1.7 76 76 Calm 30.16 1021 10 16 0.00 0.00
3:53 am 03:53 Clear 42 5.6 33 0.6 71 71 Calm 30.16 1021 10 16 0.00 0.00
4:53 am 04:53 Clear 40 4.4 32 0 73 73 Calm 30.17 1022 10 16 0.00 0.00
5:53 am 05:53 Clear 40 4.4 33 0.6 77 77 Calm 30.18 1022 10 16 0.00 0.00
6:53 am 06:53 Sunny 39 3.9 31 -0.6 73 73 Calm 30.19 1022 10 16 0.00 0.00
7:53 am 07:53 Sunny 45 7.2 35 1.7 68 68 Calm 30.21 1023 10 16 0.00 0.00
8:53 am 08:53 Sunny 53 11.7 37 2.8 55 55 Calm 30.21 1023 10 16 0.00 0.00
9:53 am 09:53 Sunny 64 17.8 39 3.9 40 40 Calm 30.20 1023 10 16 0.00 0.00
10:53 am 10:53 Sunny 72 22.2 37 2.8 28 28 Calm 30.19 1022 10 16 0.00 0.00
11:53 am 11:53 Sunny 77 25 36 2.2 23 23 Calm 30.17 1022 10 16 0.00 0.00
12:53 pm 12:53 Sunny 80 26.7 35 1.7 20 20 Calm 30.14 1021 10 16 0.00 0.00
1:53 pm 13:53 Sunny 81 27.2 35 1.7 19 19 Calm 30.12 1020 10 16 0.00 0.00
2:53 pm 14:53 Sunny 82 27.8 33 0.6 17 17 Calm 30.10 1019 10 16 0.00 0.00
3:53 pm 15:53 Sunny 81 27.2 35 1.7 19 19 S 3 6 30.10 1019 10 16 0.00 0.00
4:53 pm 16:53 Sunny 74 23.3 36 2.2 25 25 S 3 6 30.10 1019 10 16 0.00 0.00
5:53 pm 17:53 Clear 65 18.3 37 2.8 36 36 Calm 30.11 1020 10 16 0.00 0.00
6:53 pm 18:53 Clear 58 14.4 34 1.1 41 41 NNE 7 11 30.13 1020 10 16 0.00 0.00
7:53 pm 19:53 Clear 56 13.3 36 2.2 47 47 W 3 6 30.14 1021 10 16 0.00 0.00
8:53 pm 20:53 Clear 53 11.7 36 2.2 52 52 Calm 30.14 1021 10 16 0.00 0.00
9:53 pm 21:53 Clear 50 10 34 1.1 54 54 Calm 30.16 1021 10 16 0.00 0.00
10:53 pm 22:53 Clear 48 8.9 33 0.6 56 56 NNE 3 6 30.15 1021 10 16 0.00 0.00
11:53 pm 23:53 Clear 47 8.3 33 0.6 59 59 N 3 6 30.15 1021 10 16 0.00 0.00

Powered by AerisWeather